Flag for Canada Weather past 2 weeks in Gatineau, Quebec, Canada

Now
63 °F

Mostly cloudy.


Feels Like: 63 °F
Forecast: 60 / 78 °F
Wind: 10 mph from East

Location: Ottawa Int'L. Ont.

Current Time: Aug 23, 2014 at 2:16:52 AM

Latest Report: Aug 23, 2014 at 1:00 AM


Visibility: 15 mi

Pressure: 30.09 "Hg

Humidity: 94%

Dew point: 61 °F

Location of GatineauLocation

Historic Weather in Gatineau — Graph

°F

Gatineau temperature yesterday

Maximum temperature yesterday: 72 °F (at 4:00 PM)
Minimum temperature yesterday: 61 °F (at 3:00 AM)
Average temperature yesterday: 66 °F

Past Weeks' High & Low Weather Summary

 TemperatureHumidityPressure
High86 °F (Aug 11, 5:00 PM)100% (Aug 11, 6:00 AM)30.16 "Hg (Aug 11, 6:00 AM)
Low48 °F (Aug 18, 6:00 AM)37% (Aug 9, 6:00 PM)29.65 "Hg (Aug 13, 4:00 PM)
Average65 °F78%29.94 "Hg
* Reported Aug 8 1:00 AM — Aug 23 1:00 AM, Gatineau, Weather by CustomWeather, © 2014

Note: Actual official high and low records may vary slightly from our data, if they occured in-between our weather recording intervals... More about our weather records

Advertising

Gatineau weather history for previous 24 hours

 ConditionsComfort  
Time TempWeatherWind HumidityBarometerVisibility
1:00 AM
Aug 23
63 °FMostly cloudy.10 mph94%30.09 "Hg15 mi
12:00 AM63 °FPartly cloudy.9 mph88%30.09 "Hg15 mi
11:00 PM
Aug 22
63 °FPartly cloudy.9 mph88%30.08 "Hg15 mi
10:00 PM64 °FPassing clouds.12 mph83%30.08 "Hg15 mi
9:00 PM66 °FPassing clouds.13 mph83%30.08 "Hg15 mi
8:00 PM68 °FScattered clouds.9 mph78%30.06 "Hg15 mi
7:00 PM70 °FBroken clouds.10 mph78%30.06 "Hg15 mi
6:00 PM70 °FPartly sunny.14 mph78%30.05 "Hg15 mi
5:47 PM72 °FPartly sunny.12 mph73%30.05 "Hg15 mi
5:00 PM72 °FMostly cloudy.10 mph73%30.05 "Hg15 mi
4:00 PM72 °FMostly cloudy.12 mph73%30.05 "Hg15 mi
3:00 PM70 °FOvercast.9 mph78%30.05 "Hg15 mi
2:00 PM70 °FOvercast.9 mph78%30.06 "Hg15 mi
1:00 PM70 °FOvercast.10 mph78%30.05 "Hg15 mi
12:00 PM70 °FOvercast.13 mph83%30.05 "Hg15 mi
11:00 AM68 °FBroken clouds.8 mph83%30.05 "Hg15 mi
10:00 AM66 °FMore clouds than sun.8 mph83%30.05 "Hg15 mi
9:00 AM64 °FBroken clouds.10 mph88%30.05 "Hg15 mi
8:00 AM63 °FMostly cloudy.10 mph88%30.03 "Hg15 mi
7:00 AM61 °FPassing clouds.10 mph94%30.03 "Hg15 mi
6:00 AM61 °FPartly cloudy.9 mph94%30.02 "Hg15 mi
5:00 AM61 °FOvercast.6 mph100%30.01 "Hg15 mi
4:00 AM61 °FOvercast.6 mph94%30.00 "Hg15 mi
3:00 AM61 °FPassing clouds.8 mph94%30.00 "Hg15 mi
2:00 AM63 °FMostly cloudy.9 mph94%29.99 "Hg15 mi
Weather by CustomWeather, © 2014

See weather overviewHow to use our weather pages